Time,TemperatureF,DewpointF,PressureIn,WindDirection,WindDirectionDegrees,WindSpeedMPH,WindSpeedGustMPH,Humidity,HourlyPrecipIn,Conditions,Clouds,dailyrainin,SolarRadiationWatts/m^2,SoftwareType,DateUTC
2013-01-30 00:03:00,20.7,16.5,29.91,NW,316,3.0,8.0,84,0.00,,,0.01,0.0,meteohub,2013-01-30 06:03:00,
2013-01-30 00:08:00,20.5,16.2,29.91,WNW,290,3.0,9.0,83,0.00,,,0.00,0.0,meteohub,2013-01-30 06:08:00,
2013-01-30 00:14:00,20.1,16.0,29.91,NE,42,4.0,10.0,84,0.00,,,0.00,0.0,meteohub,2013-01-30 06:14:00,
2013-01-30 00:19:00,20.1,16.0,29.91,NNW,342,5.0,10.0,84,0.00,,,0.00,0.0,meteohub,2013-01-30 06:19:00,
2013-01-30 00:24:00,19.9,15.6,29.90,NW,325,5.0,10.0,83,0.00,,,0.00,0.0,meteohub,2013-01-30 06:24:00,
2013-01-30 00:29:00,19.8,15.4,29.89,WNW,291,6.0,13.0,83,0.00,,,0.00,0.0,meteohub,2013-01-30 06:29:00,
2013-01-30 00:34:00,19.8,15.4,29.90,NNW,336,3.0,13.0,83,0.00,,,0.00,0.0,meteohub,2013-01-30 06:34:00,
2013-01-30 00:39:00,19.6,15.3,29.90,West,263,4.0,13.0,83,0.00,,,0.00,0.0,meteohub,2013-01-30 06:39:00,
2013-01-30 00:44:00,19.2,14.7,29.90,North,0,1.0,13.0,82,0.00,,,0.00,0.0,meteohub,2013-01-30 06:44:00,
2013-01-30 00:49:00,19.0,14.7,29.90,SW,232,5.0,13.0,83,0.00,,,0.00,0.0,meteohub,2013-01-30 06:49:00,
2013-01-30 00:54:00,19.0,15.1,29.90,North,355,3.0,10.0,84,0.00,,,0.00,0.0,meteohub,2013-01-30 06:54:00,
2013-01-30 00:59:00,18.9,14.5,29.90,NW,316,2.0,10.0,83,0.00,,,0.00,0.0,meteohub,2013-01-30 06:59:00,
2013-01-30 01:04:00,18.7,14.7,29.90,SW,230,2.0,10.0,84,0.00,,,0.00,0.0,meteohub,2013-01-30 07:04:00,
2013-01-30 01:09:00,18.5,14.2,29.90,West,279,10.0,10.0,83,0.00,,,0.00,0.0,meteohub,2013-01-30 07:09:00,
2013-01-30 01:14:00,18.3,14.4,29.90,NE,49,8.0,10.0,84,0.00,,,0.00,0.0,meteohub,2013-01-30 07:14:00,
2013-01-30 01:19:00,18.1,13.8,29.90,North,5,3.0,10.0,83,0.00,,,0.00,0.0,meteohub,2013-01-30 07:19:00,
2013-01-30 01:24:00,18.0,13.6,29.89,NNW,335,9.0,13.0,83,0.00,,,0.00,0.0,meteohub,2013-01-30 07:24:00,
2013-01-30 01:29:00,18.0,13.5,29.88,NE,39,4.0,13.0,82,0.00,,,0.00,0.0,meteohub,2013-01-30 07:29:00,
2013-01-30 01:34:00,17.8,13.3,29.88,West,267,4.0,11.0,82,0.00,,,0.00,0.0,meteohub,2013-01-30 07:34:00,
2013-01-30 01:39:00,17.8,12.9,29.87,NW,313,10.0,14.0,81,0.00,,,0.00,0.0,meteohub,2013-01-30 07:39:00,
2013-01-30 01:44:00,17.4,12.6,29.87,WSW,250,8.0,14.0,81,0.00,,,0.00,0.0,meteohub,2013-01-30 07:44:00,
2013-01-30 01:49:00,17.1,12.0,29.87,SW,216,3.0,14.0,80,0.00,,,0.00,0.0,meteohub,2013-01-30 07:49:00,
2013-01-30 01:54:00,16.9,12.0,29.87,North,355,6.0,14.0,81,0.00,,,0.00,0.0,meteohub,2013-01-30 07:54:00,
2013-01-30 01:59:00,16.7,11.8,29.87,West,261,5.0,14.0,81,0.00,,,0.00,0.0,meteohub,2013-01-30 07:59:00,
2013-01-30 02:04:00,16.5,11.7,29.87,NW,311,2.0,10.0,81,0.00,,,0.00,0.0,meteohub,2013-01-30 08:04:00,
2013-01-30 02:09:00,16.2,11.3,29.88,West,270,4.0,11.0,81,0.00,,,0.00,0.0,meteohub,2013-01-30 08:09:00,
2013-01-30 02:14:00,16.2,11.7,29.88,West,272,1.0,15.0,82,0.00,,,0.00,0.0,meteohub,2013-01-30 08:14:00,
2013-01-30 02:19:00,16.0,11.5,29.88,NNW,342,7.0,15.0,82,0.00,,,0.00,0.0,meteohub,2013-01-30 08:19:00,
2013-01-30 02:24:00,15.8,11.3,29.89,WNW,285,3.0,12.0,82,0.00,,,0.00,0.0,meteohub,2013-01-30 08:24:00,
2013-01-30 02:29:00,15.6,11.3,29.89,WSW,252,7.0,12.0,83,0.00,,,0.00,0.0,meteohub,2013-01-30 08:29:00,
2013-01-30 02:34:00,15.4,11.1,29.89,NW,312,7.0,9.0,83,0.00,,,0.00,0.0,meteohub,2013-01-30 08:34:00,
2013-01-30 02:39:00,15.4,11.1,29.90,North,355,1.0,11.0,83,0.00,,,0.00,0.0,meteohub,2013-01-30 08:39:00,
2013-01-30 02:44:00,15.3,11.1,29.89,NW,315,2.0,11.0,83,0.00,,,0.00,0.0,meteohub,2013-01-30 08:44:00,
2013-01-30 02:49:00,15.3,11.1,29.89,WNW,300,5.0,14.0,83,0.00,,,0.00,0.0,meteohub,2013-01-30 08:49:00,
2013-01-30 02:54:00,15.3,11.3,29.89,WNW,299,10.0,14.0,84,0.00,,,0.00,0.0,meteohub,2013-01-30 08:54:00,
2013-01-30 02:59:00,15.1,10.9,29.89,North,355,4.0,14.0,83,0.00,,,0.00,0.0,meteohub,2013-01-30 08:59:00,
2013-01-30 03:04:00,15.1,11.1,29.89,West,275,5.0,11.0,84,0.00,,,0.00,0.0,meteohub,2013-01-30 09:04:00,
2013-01-30 03:09:00,14.9,10.9,29.89,NNW,327,3.0,14.0,84,0.00,,,0.00,0.0,meteohub,2013-01-30 09:09:00,
2013-01-30 03:14:00,14.7,10.6,29.89,WSW,248,4.0,14.0,83,0.00,,,0.00,0.0,meteohub,2013-01-30 09:14:00,
2013-01-30 03:19:00,14.7,10.6,29.90,NW,314,9.0,14.0,83,0.00,,,0.00,0.0,meteohub,2013-01-30 09:19:00,
2013-01-30 03:24:00,14.7,10.8,29.90,West,277,1.0,13.0,84,0.00,,,0.00,0.0,meteohub,2013-01-30 09:24:00,
2013-01-30 03:29:00,14.5,10.6,29.90,NW,317,5.0,13.0,84,0.00,,,0.00,0.0,meteohub,2013-01-30 09:29:00,
2013-01-30 03:34:00,14.5,10.6,29.91,WNW,286,2.0,13.0,84,0.00,,,0.00,0.0,meteohub,2013-01-30 09:34:00,
2013-01-30 03:39:00,14.5,10.6,29.90,WSW,258,4.0,13.0,84,0.00,,,0.00,0.0,meteohub,2013-01-30 09:39:00,
2013-01-30 03:44:00,14.5,10.4,29.90,North,0,5.0,12.0,83,0.00,,,0.00,0.0,meteohub,2013-01-30 09:44:00,
2013-01-30 03:49:00,14.5,10.4,29.90,West,276,3.0,12.0,83,0.00,,,0.00,0.0,meteohub,2013-01-30 09:49:00,
2013-01-30 03:54:00,14.4,10.2,29.89,WNW,303,2.0,11.0,83,0.00,,,0.00,0.0,meteohub,2013-01-30 09:54:00,
2013-01-30 03:59:00,14.4,10.2,29.89,SSW,209,2.0,12.0,83,0.00,,,0.00,0.0,meteohub,2013-01-30 09:59:00,
2013-01-30 04:05:00,14.4,9.9,29.89,NW,320,4.0,12.0,82,0.00,,,0.00,0.0,meteohub,2013-01-30 10:05:00,
2013-01-30 04:10:00,14.4,9.9,29.89,West,277,3.0,11.0,82,0.00,,,0.00,0.0,meteohub,2013-01-30 10:10:00,
2013-01-30 04:15:00,14.4,9.9,29.89,West,273,6.0,11.0,82,0.00,,,0.00,0.0,meteohub,2013-01-30 10:15:00,
2013-01-30 04:20:00,14.4,10.2,29.89,NNW,342,8.0,12.0,83,0.00,,,0.00,0.0,meteohub,2013-01-30 10:20:00,
2013-01-30 04:25:00,14.4,9.9,29.89,WNW,291,4.0,12.0,82,0.00,,,0.00,0.0,meteohub,2013-01-30 10:25:00,
2013-01-30 04:30:00,14.2,10.0,29.88,West,260,3.0,12.0,83,0.00,,,0.00,0.0,meteohub,2013-01-30 10:30:00,
2013-01-30 04:35:00,14.2,9.7,29.89,SW,234,7.0,14.0,82,0.00,,,0.00,0.0,meteohub,2013-01-30 10:35:00,
2013-01-30 04:40:00,14.0,9.5,29.89,West,275,10.0,14.0,82,0.00,,,0.00,0.0,meteohub,2013-01-30 10:40:00,
2013-01-30 04:45:00,14.0,9.9,29.89,North,355,5.0,14.0,83,0.00,,,0.00,0.0,meteohub,2013-01-30 10:45:00,
2013-01-30 04:50:00,13.8,9.7,29.89,WSW,246,7.0,12.0,83,0.00,,,0.00,0.0,meteohub,2013-01-30 10:50:00,
2013-01-30 04:55:00,13.8,9.7,29.89,North,11,3.0,11.0,83,0.00,,,0.00,0.0,meteohub,2013-01-30 10:55:00,
2013-01-30 05:00:00,13.8,9.7,29.90,North,5,3.0,12.0,83,0.00,,,0.00,0.0,meteohub,2013-01-30 11:00:00,
2013-01-30 05:05:00,13.8,9.7,29.90,West,265,4.0,14.0,83,0.00,,,0.00,0.0,meteohub,2013-01-30 11:05:00,
2013-01-30 05:10:00,13.8,9.7,29.90,North,10,3.0,14.0,83,0.00,,,0.00,0.0,meteohub,2013-01-30 11:10:00,
2013-01-30 05:15:00,13.8,9.7,29.90,NNW,342,4.0,14.0,83,0.00,,,0.00,0.0,meteohub,2013-01-30 11:15:00,
2013-01-30 05:20:00,13.6,9.5,29.90,WNW,293,4.0,12.0,83,0.00,,,0.00,0.0,meteohub,2013-01-30 11:20:00,
2013-01-30 05:25:00,13.6,9.5,29.90,West,265,2.0,13.0,83,0.00,,,0.00,0.0,meteohub,2013-01-30 11:25:00,
2013-01-30 05:30:00,13.6,9.1,29.90,NNW,337,2.0,13.0,82,0.00,,,0.00,0.0,meteohub,2013-01-30 11:30:00,
2013-01-30 05:35:00,13.6,9.1,29.90,WNW,289,2.0,13.0,82,0.00,,,0.00,0.0,meteohub,2013-01-30 11:35:00,
2013-01-30 05:40:00,13.6,9.1,29.90,WNW,301,3.0,14.0,82,0.00,,,0.00,0.0,meteohub,2013-01-30 11:40:00,
2013-01-30 05:45:00,13.5,8.4,29.90,NW,311,5.0,14.0,80,0.00,,,0.00,0.0,meteohub,2013-01-30 11:45:00,
2013-01-30 05:50:00,13.3,8.1,29.90,SW,232,2.0,14.0,79,0.00,,,0.00,0.0,meteohub,2013-01-30 11:50:00,
2013-01-30 05:55:00,13.3,8.1,29.89,NNE,20,8.0,13.0,79,0.00,,,0.00,0.0,meteohub,2013-01-30 11:55:00,
2013-01-30 06:00:00,13.1,7.9,29.89,WNW,284,5.0,17.0,79,0.00,,,0.00,0.0,meteohub,2013-01-30 12:00:00,
2013-01-30 06:05:00,12.9,7.7,29.89,WNW,295,3.0,17.0,79,0.00,,,0.00,0.0,meteohub,2013-01-30 12:05:00,
2013-01-30 06:10:00,12.7,7.5,29.89,West,265,3.0,17.0,79,0.00,,,0.00,0.0,meteohub,2013-01-30 12:10:00,
2013-01-30 06:15:00,12.7,7.7,29.89,WSW,242,8.0,16.0,80,0.00,,,0.00,0.0,meteohub,2013-01-30 12:15:00,
2013-01-30 06:20:00,12.6,7.3,29.89,West,275,8.0,16.0,79,0.00,,,0.00,0.0,meteohub,2013-01-30 12:20:00,
2013-01-30 06:25:00,12.6,7.5,29.88,NNW,329,5.0,16.0,80,0.00,,,0.00,0.0,meteohub,2013-01-30 12:25:00,
2013-01-30 06:30:00,12.4,7.3,29.88,NNW,327,3.0,14.0,80,0.00,,,0.00,0.0,meteohub,2013-01-30 12:30:00,
2013-01-30 06:35:00,12.4,7.3,29.88,NW,307,3.0,-999.0,80,0.00,,,0.00,0.0,meteohub,2013-01-30 12:35:00,
2013-01-30 06:40:00,12.2,7.2,29.88,WNW,284,3.0,14.0,80,0.00,,,0.00,0.0,meteohub,2013-01-30 12:40:00,
2013-01-30 06:45:00,12.0,7.0,29.89,NW,306,6.0,16.0,80,0.00,,,0.00,0.0,meteohub,2013-01-30 12:45:00,
2013-01-30 06:50:00,12.0,7.0,29.89,WNW,301,3.0,16.0,80,0.00,,,0.00,0.0,meteohub,2013-01-30 12:50:00,
2013-01-30 06:55:00,11.8,6.8,29.89,WSW,252,5.0,14.0,80,0.00,,,0.00,0.0,meteohub,2013-01-30 12:55:00,
2013-01-30 07:00:00,11.8,6.8,29.89,NNW,344,3.0,17.0,80,0.00,,,0.00,0.0,meteohub,2013-01-30 13:00:00,
2013-01-30 07:05:00,11.8,7.2,29.88,North,355,5.0,17.0,81,0.00,,,0.00,0.0,meteohub,2013-01-30 13:05:00,
2013-01-30 07:10:00,11.7,6.6,29.89,NW,311,5.0,17.0,80,0.00,,,0.00,0.0,meteohub,2013-01-30 13:10:00,
2013-01-30 07:15:00,11.7,6.6,29.88,WSW,251,7.0,16.0,80,0.00,,,0.00,0.0,meteohub,2013-01-30 13:15:00,
2013-01-30 07:20:00,11.7,7.0,29.89,West,261,7.0,16.0,81,0.00,,,0.00,0.0,meteohub,2013-01-30 13:20:00,
2013-01-30 07:25:00,11.7,7.0,29.88,West,278,9.0,16.0,81,0.00,,,0.00,0.0,meteohub,2013-01-30 13:25:00,
2013-01-30 07:30:00,11.7,7.0,29.88,West,273,7.0,15.0,81,0.00,,,0.00,0.0,meteohub,2013-01-30 13:30:00,
2013-01-30 07:35:00,11.7,7.0,29.88,WSW,246,5.0,15.0,81,0.00,,,0.00,0.0,meteohub,2013-01-30 13:35:00,
2013-01-30 07:40:00,11.5,7.0,29.89,WNW,299,6.0,16.0,82,0.00,,,0.00,0.0,meteohub,2013-01-30 13:40:00,
2013-01-30 07:45:00,11.5,7.0,29.88,North,355,5.0,16.0,82,0.00,,,0.00,0.0,meteohub,2013-01-30 13:45:00,
2013-01-30 07:50:00,11.5,7.0,29.88,WSW,257,8.0,16.0,82,0.00,,,0.00,5.0,meteohub,2013-01-30 13:50:00,
2013-01-30 07:55:00,11.3,6.8,29.88,WSW,255,3.0,16.0,82,0.00,,,0.00,5.0,meteohub,2013-01-30 13:55:00,
2013-01-30 08:00:00,11.3,7.2,29.88,West,259,13.0,14.0,83,0.00,,,0.00,7.0,meteohub,2013-01-30 14:00:00,
2013-01-30 08:06:00,11.3,6.8,29.89,NE,36,4.0,13.0,82,0.00,,,0.00,11.0,meteohub,2013-01-30 14:06:00,
2013-01-30 08:11:00,11.1,6.6,29.89,SSW,212,2.0,14.0,82,0.00,,,0.00,12.0,meteohub,2013-01-30 14:11:00,
2013-01-30 08:16:00,11.1,6.6,29.89,West,278,7.0,15.0,82,0.00,,,0.00,12.0,meteohub,2013-01-30 14:16:00,
2013-01-30 08:21:00,11.1,6.6,29.89,West,266,6.0,15.0,82,0.00,,,0.00,14.0,meteohub,2013-01-30 14:21:00,
2013-01-30 08:26:00,11.1,6.6,29.89,WNW,303,5.0,15.0,82,0.00,,,0.00,21.0,meteohub,2013-01-30 14:26:00,
2013-01-30 08:31:00,10.9,6.8,29.90,WSW,251,10.0,12.0,83,0.00,,,0.00,26.0,meteohub,2013-01-30 14:31:00,
2013-01-30 08:36:00,10.9,6.8,29.90,West,274,9.0,12.0,83,0.00,,,0.00,30.0,meteohub,2013-01-30 14:36:00,
2013-01-30 08:41:00,10.6,5.9,29.90,NW,311,10.0,17.0,81,0.00,,,0.00,37.0,meteohub,2013-01-30 14:41:00,
2013-01-30 08:46:00,10.2,5.9,29.90,WNW,300,4.0,17.0,82,0.00,,,0.00,44.0,meteohub,2013-01-30 14:46:00,
2013-01-30 08:51:00,10.0,5.7,29.90,West,269,6.0,17.0,82,0.00,,,0.00,46.0,meteohub,2013-01-30 14:51:00,
2013-01-30 08:56:00,9.9,5.5,29.90,WSW,252,12.0,17.0,82,0.00,,,0.00,51.0,meteohub,2013-01-30 14:56:00,
2013-01-30 09:01:00,9.9,5.5,29.90,WSW,257,4.0,13.0,82,0.00,,,0.00,56.0,meteohub,2013-01-30 15:01:00,
2013-01-30 09:06:00,10.0,5.7,29.90,WNW,290,6.0,15.0,82,0.00,,,0.00,62.0,meteohub,2013-01-30 15:06:00,
2013-01-30 09:11:00,10.2,6.1,29.90,NE,39,5.0,15.0,83,0.00,,,0.00,77.0,meteohub,2013-01-30 15:11:00,
2013-01-30 09:16:00,10.4,6.3,29.90,WSW,252,5.0,15.0,83,0.00,,,0.00,84.0,meteohub,2013-01-30 15:16:00,
2013-01-30 09:21:00,10.6,6.3,29.90,NNW,333,4.0,12.0,82,0.00,,,0.00,90.0,meteohub,2013-01-30 15:21:00,
2013-01-30 09:26:00,10.8,6.4,29.90,NNW,333,4.0,14.0,82,0.00,,,0.00,97.0,meteohub,2013-01-30 15:26:00,
2013-01-30 09:31:00,10.8,6.4,29.90,West,259,7.0,14.0,82,0.00,,,0.00,102.0,meteohub,2013-01-30 15:31:00,
2013-01-30 09:36:00,10.8,6.4,29.90,West,267,6.0,14.0,82,0.00,,,0.00,107.0,meteohub,2013-01-30 15:36:00,
2013-01-30 09:41:00,10.9,6.6,29.90,West,266,7.0,12.0,82,0.00,,,0.00,111.0,meteohub,2013-01-30 15:41:00,
2013-01-30 09:46:00,11.1,6.6,29.90,West,269,4.0,12.0,82,0.00,,,0.00,113.0,meteohub,2013-01-30 15:46:00,
2013-01-30 09:51:00,11.1,6.6,29.90,West,274,6.0,10.0,82,0.00,,,0.00,111.0,meteohub,2013-01-30 15:51:00,
2013-01-30 09:56:00,11.1,6.6,29.91,NNE,29,5.0,12.0,82,0.00,,,0.00,109.0,meteohub,2013-01-30 15:56:00,
2013-01-30 10:01:00,11.1,6.6,29.91,WNW,285,5.0,15.0,82,0.00,,,0.00,114.0,meteohub,2013-01-30 16:01:00,
2013-01-30 10:06:00,11.1,7.0,29.91,NW,313,6.0,15.0,83,0.00,,,0.00,116.0,meteohub,2013-01-30 16:06:00,
2013-01-30 10:11:00,11.3,6.8,29.91,NW,316,6.0,15.0,82,0.00,,,0.00,120.0,meteohub,2013-01-30 16:11:00,
2013-01-30 10:16:00,11.3,6.8,29.91,West,278,7.0,15.0,82,0.00,,,0.00,125.0,meteohub,2013-01-30 16:16:00,
2013-01-30 10:21:00,11.3,6.8,29.91,WSW,254,3.0,15.0,82,0.00,,,0.00,128.0,meteohub,2013-01-30 16:21:00,
2013-01-30 10:26:00,11.5,7.0,29.91,North,355,2.0,13.0,82,0.00,,,0.00,132.0,meteohub,2013-01-30 16:26:00,
2013-01-30 10:31:00,11.5,7.0,29.91,WNW,298,2.0,13.0,82,0.00,,,0.00,139.0,meteohub,2013-01-30 16:31:00,
2013-01-30 10:36:00,11.5,7.0,29.91,WSW,256,4.0,12.0,82,0.00,,,0.00,146.0,meteohub,2013-01-30 16:36:00,
2013-01-30 10:41:00,11.7,7.0,29.92,West,279,4.0,13.0,81,0.00,,,0.00,151.0,meteohub,2013-01-30 16:41:00,
2013-01-30 10:46:00,11.7,7.0,29.91,West,271,8.0,13.0,81,0.00,,,0.00,156.0,meteohub,2013-01-30 16:46:00,
2013-01-30 10:51:00,11.8,7.2,29.91,NW,311,3.0,13.0,81,0.00,,,0.00,156.0,meteohub,2013-01-30 16:51:00,
2013-01-30 10:56:00,12.0,7.5,29.91,SW,232,9.0,13.0,82,0.00,,,0.00,162.0,meteohub,2013-01-30 16:56:00,
2013-01-30 11:01:00,11.8,7.2,29.92,NNE,30,7.0,13.0,81,0.00,,,0.00,171.0,meteohub,2013-01-30 17:01:00,
2013-01-30 11:06:00,12.0,7.3,29.92,NW,311,3.0,12.0,81,0.00,,,0.00,174.0,meteohub,2013-01-30 17:06:00,
2013-01-30 11:11:00,12.0,7.0,29.92,WSW,257,3.0,12.0,80,0.00,,,0.00,176.0,meteohub,2013-01-30 17:11:00,
2013-01-30 11:16:00,12.0,7.0,29.91,West,265,5.0,13.0,80,0.00,,,0.00,181.0,meteohub,2013-01-30 17:16:00,
2013-01-30 11:22:00,12.2,7.5,29.92,West,269,8.0,13.0,81,0.00,,,0.00,186.0,meteohub,2013-01-30 17:22:00,
2013-01-30 11:27:00,12.2,7.5,29.92,NNW,334,2.0,13.0,81,0.00,,,0.00,186.0,meteohub,2013-01-30 17:27:00,
2013-01-30 11:32:00,12.6,7.9,29.92,NNW,330,4.0,11.0,81,0.00,,,0.00,206.0,meteohub,2013-01-30 17:32:00,
2013-01-30 11:37:00,12.4,7.7,29.92,WNW,291,2.0,11.0,81,0.00,,,0.00,216.0,meteohub,2013-01-30 17:37:00,
2013-01-30 11:42:00,12.6,7.5,29.92,North,355,5.0,11.0,80,0.00,,,0.00,239.0,meteohub,2013-01-30 17:42:00,
2013-01-30 11:47:00,12.7,7.7,29.91,NW,305,5.0,10.0,80,0.00,,,0.00,248.0,meteohub,2013-01-30 17:47:00,
2013-01-30 11:52:00,12.7,7.7,29.91,West,269,4.0,12.0,80,0.00,,,0.00,257.0,meteohub,2013-01-30 17:52:00,
2013-01-30 11:57:00,12.6,7.3,29.91,NNW,336,3.0,13.0,79,0.00,,,0.00,230.0,meteohub,2013-01-30 17:57:00,
2013-01-30 12:02:00,12.7,7.5,29.91,NNW,334,2.0,14.0,79,0.00,,,0.00,265.0,meteohub,2013-01-30 18:02:00,
2013-01-30 12:07:00,12.9,7.9,29.91,WNW,286,10.0,14.0,80,0.00,,,0.00,251.0,meteohub,2013-01-30 18:07:00,
2013-01-30 12:12:00,12.9,7.9,29.91,West,274,5.0,14.0,80,0.00,,,0.00,241.0,meteohub,2013-01-30 18:12:00,
2013-01-30 12:17:00,12.9,7.7,29.91,North,0,4.0,11.0,79,0.00,,,0.00,220.0,meteohub,2013-01-30 18:17:00,
2013-01-30 12:22:00,12.9,7.7,29.90,WNW,283,4.0,15.0,79,0.00,,,0.00,206.0,meteohub,2013-01-30 18:22:00,
2013-01-30 12:27:00,13.1,8.1,29.90,NNE,14,3.0,15.0,80,0.00,,,0.00,255.0,meteohub,2013-01-30 18:27:00,
2013-01-30 12:32:00,13.1,8.1,29.90,WNW,302,7.0,15.0,80,0.00,,,0.00,304.0,meteohub,2013-01-30 18:32:00,
2013-01-30 12:37:00,13.3,7.7,29.90,West,275,8.0,12.0,78,0.00,,,0.00,276.0,meteohub,2013-01-30 18:37:00,
2013-01-30 12:42:00,13.3,7.7,29.90,WSW,250,3.0,14.0,78,0.00,,,0.00,325.0,meteohub,2013-01-30 18:42:00,
2013-01-30 12:47:00,13.6,8.1,29.90,WNW,287,2.0,14.0,78,0.00,,,0.00,304.0,meteohub,2013-01-30 18:47:00,
2013-01-30 12:52:00,13.8,8.6,29.89,West,275,5.0,16.0,79,0.00,,,0.00,380.0,meteohub,2013-01-30 18:52:00,
2013-01-30 12:57:00,13.8,8.6,29.90,WSW,251,5.0,16.0,79,0.00,,,0.00,315.0,meteohub,2013-01-30 18:57:00,
2013-01-30 13:02:00,14.0,8.4,29.89,West,277,7.0,16.0,78,0.00,,,0.00,269.0,meteohub,2013-01-30 19:02:00,
2013-01-30 13:07:00,14.2,8.6,29.89,WNW,288,4.0,14.0,78,0.00,,,0.00,302.0,meteohub,2013-01-30 19:07:00,
2013-01-30 13:12:00,13.6,8.6,29.89,WSW,254,5.0,14.0,80,0.00,,,0.00,313.0,meteohub,2013-01-30 19:12:00,
2013-01-30 13:17:00,13.5,8.4,29.90,West,263,7.0,14.0,80,0.00,,,0.00,236.0,meteohub,2013-01-30 19:17:00,
2013-01-30 13:22:00,13.1,8.4,29.90,West,261,9.0,14.0,81,0.00,,,0.00,243.0,meteohub,2013-01-30 19:22:00,
2013-01-30 13:27:00,12.7,7.7,29.89,West,274,6.0,14.0,80,0.00,,,0.00,250.0,meteohub,2013-01-30 19:27:00,
2013-01-30 13:32:00,12.9,7.9,29.89,West,270,7.0,13.0,80,0.00,,,0.00,250.0,meteohub,2013-01-30 19:32:00,
2013-01-30 13:37:00,12.7,7.7,29.89,West,259,6.0,13.0,80,0.00,,,0.00,255.0,meteohub,2013-01-30 19:37:00,
2013-01-30 13:42:00,12.9,8.2,29.89,WSW,245,7.0,13.0,81,0.00,,,0.00,255.0,meteohub,2013-01-30 19:42:00,
2013-01-30 13:47:00,12.9,7.7,29.89,NW,325,6.0,16.0,79,0.00,,,0.00,255.0,meteohub,2013-01-30 19:47:00,
2013-01-30 13:52:00,12.9,7.7,29.89,West,272,8.0,16.0,79,0.00,,,0.00,218.0,meteohub,2013-01-30 19:52:00,
2013-01-30 13:57:00,12.7,7.5,29.89,West,269,5.0,13.0,79,0.00,,,0.00,232.0,meteohub,2013-01-30 19:57:00,
2013-01-30 14:02:00,12.6,7.5,29.89,West,267,11.0,13.0,80,0.00,,,0.00,223.0,meteohub,2013-01-30 20:02:00,
2013-01-30 14:07:00,12.4,7.3,29.89,West,271,7.0,13.0,80,0.00,,,0.00,218.0,meteohub,2013-01-30 20:07:00,
2013-01-30 14:12:00,12.6,7.9,29.89,West,275,6.0,13.0,81,0.00,,,0.00,209.0,meteohub,2013-01-30 20:12:00,
2013-01-30 14:17:00,12.6,7.5,29.89,NW,311,2.0,13.0,80,0.00,,,0.00,200.0,meteohub,2013-01-30 20:17:00,
2013-01-30 14:22:00,12.4,7.2,29.89,West,280,5.0,10.0,79,0.00,,,0.00,183.0,meteohub,2013-01-30 20:22:00,
2013-01-30 14:27:00,12.4,7.3,29.89,NW,313,4.0,13.0,80,0.00,,,0.00,179.0,meteohub,2013-01-30 20:27:00,
2013-01-30 14:32:00,12.6,7.5,29.89,West,265,6.0,13.0,80,0.00,,,0.00,185.0,meteohub,2013-01-30 20:32:00,
2013-01-30 14:37:00,12.0,6.8,29.89,West,267,7.0,13.0,79,0.00,,,0.00,179.0,meteohub,2013-01-30 20:37:00,
2013-01-30 14:42:00,11.8,6.8,29.89,West,263,5.0,13.0,80,0.00,,,0.00,160.0,meteohub,2013-01-30 20:42:00,
2013-01-30 14:47:00,11.7,7.0,29.90,WNW,287,4.0,13.0,81,0.00,,,0.00,155.0,meteohub,2013-01-30 20:47:00,
2013-01-30 14:52:00,11.5,6.4,29.90,West,263,10.0,13.0,80,0.00,,,0.00,146.0,meteohub,2013-01-30 20:52:00,
2013-01-30 14:57:00,11.5,6.4,29.90,NW,309,5.0,13.0,80,0.00,,,0.00,146.0,meteohub,2013-01-30 20:57:00,
2013-01-30 15:02:00,11.1,6.4,29.90,West,269,5.0,14.0,81,0.00,,,0.00,141.0,meteohub,2013-01-30 21:02:00,
2013-01-30 15:07:00,11.1,6.4,29.90,West,267,9.0,14.0,81,0.00,,,0.00,128.0,meteohub,2013-01-30 21:07:00,
2013-01-30 15:12:00,10.9,6.3,29.91,WNW,288,4.0,14.0,81,0.00,,,0.00,132.0,meteohub,2013-01-30 21:12:00,
2013-01-30 15:17:00,10.8,6.1,29.91,West,259,7.0,12.0,81,0.00,,,0.00,127.0,meteohub,2013-01-30 21:17:00,
2013-01-30 15:22:00,10.4,5.7,29.91,WSW,238,7.0,15.0,81,0.00,,,0.00,127.0,meteohub,2013-01-30 21:22:00,
2013-01-30 15:27:00,10.0,5.2,29.90,West,267,6.0,15.0,80,0.00,,,0.00,120.0,meteohub,2013-01-30 21:27:00,
2013-01-30 15:32:00,10.0,5.2,29.91,West,281,8.0,15.0,80,0.00,,,0.00,113.0,meteohub,2013-01-30 21:32:00,
2013-01-30 15:37:00,9.9,5.0,29.91,West,271,7.0,17.0,80,0.00,,,0.00,105.0,meteohub,2013-01-30 21:37:00,
2013-01-30 15:42:00,9.7,4.8,29.91,West,263,9.0,17.0,80,0.00,,,0.00,97.0,meteohub,2013-01-30 21:42:00,
2013-01-30 15:47:00,9.7,4.8,29.91,West,262,10.0,17.0,80,0.00,,,0.00,86.0,meteohub,2013-01-30 21:47:00,
2013-01-30 15:52:00,9.7,5.0,29.91,West,261,6.0,16.0,81,0.00,,,0.00,83.0,meteohub,2013-01-30 21:52:00,
2013-01-30 15:57:00,9.7,5.0,29.91,West,264,10.0,15.0,81,0.00,,,0.00,76.0,meteohub,2013-01-30 21:57:00,
2013-01-30 16:02:00,9.5,4.8,29.91,WSW,252,5.0,15.0,81,0.00,,,0.00,69.0,meteohub,2013-01-30 22:02:00,
2013-01-30 16:07:00,9.3,4.6,29.91,WSW,257,5.0,13.0,81,0.00,,,0.00,63.0,meteohub,2013-01-30 22:07:00,
2013-01-30 16:12:00,9.3,4.5,29.92,West,280,3.0,13.0,80,0.00,,,0.00,62.0,meteohub,2013-01-30 22:12:00,
2013-01-30 16:17:00,9.3,4.6,29.92,NNW,329,3.0,11.0,81,0.00,,,0.00,58.0,meteohub,2013-01-30 22:17:00,
2013-01-30 16:22:00,9.3,4.6,29.91,WNW,286,4.0,11.0,81,0.00,,,0.00,56.0,meteohub,2013-01-30 22:22:00,
2013-01-30 16:27:00,9.3,4.5,29.91,WSW,254,7.0,11.0,80,0.00,,,0.00,49.0,meteohub,2013-01-30 22:27:00,
2013-01-30 16:32:00,9.3,4.6,29.92,West,267,7.0,13.0,81,0.00,,,0.00,46.0,meteohub,2013-01-30 22:32:00,
2013-01-30 16:37:00,9.0,4.3,29.91,West,269,8.0,13.0,81,0.00,,,0.00,42.0,meteohub,2013-01-30 22:37:00,
2013-01-30 16:42:00,9.0,4.3,29.91,West,281,7.0,13.0,81,0.00,,,0.00,42.0,meteohub,2013-01-30 22:42:00,
2013-01-30 16:48:00,9.0,4.6,29.91,West,275,6.0,12.0,82,0.00,,,0.00,40.0,meteohub,2013-01-30 22:48:00,
2013-01-30 16:53:00,9.0,4.3,29.91,West,269,5.0,10.0,81,0.00,,,0.00,44.0,meteohub,2013-01-30 22:53:00,
2013-01-30 16:58:00,9.0,4.3,29.91,WNW,300,2.0,10.0,81,0.00,,,0.00,42.0,meteohub,2013-01-30 22:58:00,
2013-01-30 17:03:00,9.1,4.5,29.91,West,269,6.0,12.0,81,0.00,,,0.00,39.0,meteohub,2013-01-30 23:03:00,
2013-01-30 17:08:00,9.0,4.1,29.91,West,275,6.0,12.0,80,0.00,,,0.00,25.0,meteohub,2013-01-30 23:08:00,
2013-01-30 17:13:00,8.8,3.9,29.91,West,272,5.0,13.0,80,0.00,,,0.00,14.0,meteohub,2013-01-30 23:13:00,
2013-01-30 17:18:00,8.4,3.7,29.92,WSW,244,6.0,13.0,81,0.00,,,0.00,11.0,meteohub,2013-01-30 23:18:00,
2013-01-30 17:23:00,8.1,3.4,29.91,West,275,4.0,13.0,81,0.00,,,0.00,7.0,meteohub,2013-01-30 23:23:00,
2013-01-30 17:28:00,7.9,3.2,29.91,West,277,6.0,11.0,81,0.00,,,0.00,5.0,meteohub,2013-01-30 23:28:00,
2013-01-30 17:33:00,7.5,2.8,29.92,West,263,5.0,11.0,81,0.00,,,0.00,0.0,meteohub,2013-01-30 23:33:00,
2013-01-30 17:38:00,7.3,2.7,29.92,WNW,298,3.0,12.0,81,0.00,,,0.00,0.0,meteohub,2013-01-30 23:38:00,
2013-01-30 17:43:00,7.2,2.5,29.92,WNW,289,6.0,12.0,81,0.00,,,0.00,0.0,meteohub,2013-01-30 23:43:00,
2013-01-30 17:48:00,6.8,2.3,29.92,WNW,288,4.0,12.0,81,0.00,,,0.00,0.0,meteohub,2013-01-30 23:48:00,
2013-01-30 17:53:00,6.6,2.1,29.93,WSW,243,4.0,11.0,81,0.00,,,0.00,0.0,meteohub,2013-01-30 23:53:00,
2013-01-30 17:58:00,6.3,1.9,29.93,WNW,292,4.0,12.0,82,0.00,,,0.00,0.0,meteohub,2013-01-30 23:58:00,
2013-01-30 18:03:00,6.1,1.8,29.93,WSW,258,6.0,12.0,82,0.00,,,0.00,0.0,meteohub,2013-01-31 00:03:00,
2013-01-30 18:08:00,5.9,1.4,29.93,WNW,288,3.0,12.0,81,0.00,,,0.00,0.0,meteohub,2013-01-31 00:08:00,
2013-01-30 18:13:00,5.7,1.2,29.93,West,268,5.0,10.0,81,0.00,,,0.00,0.0,meteohub,2013-01-31 00:13:00,
2013-01-30 18:18:00,5.5,1.0,29.94,WNW,283,5.0,12.0,81,0.00,,,0.00,0.0,meteohub,2013-01-31 00:18:00,
2013-01-30 18:23:00,5.4,0.9,29.94,WSW,258,5.0,12.0,81,0.00,,,0.00,0.0,meteohub,2013-01-31 00:23:00,
2013-01-30 18:28:00,5.4,0.9,29.94,West,266,3.0,12.0,81,0.00,,,0.00,0.0,meteohub,2013-01-31 00:28:00,
2013-01-30 18:33:00,5.2,0.7,29.94,West,271,4.0,9.0,81,0.00,,,0.00,0.0,meteohub,2013-01-31 00:33:00,
2013-01-30 18:38:00,5.2,0.9,29.94,West,269,7.0,10.0,82,0.00,,,0.00,0.0,meteohub,2013-01-31 00:38:00,
2013-01-30 18:43:00,5.2,0.9,29.94,WSW,254,7.0,10.0,82,0.00,,,0.00,0.0,meteohub,2013-01-31 00:43:00,
2013-01-30 18:48:00,5.2,0.9,29.94,WSW,244,4.0,9.0,82,0.00,,,0.00,0.0,meteohub,2013-01-31 00:48:00,
2013-01-30 18:53:00,5.2,1.2,29.94,WNW,290,5.0,8.0,83,0.00,,,0.00,0.0,meteohub,2013-01-31 00:53:00,
2013-01-30 18:58:00,5.2,1.2,29.94,West,262,9.0,9.0,83,0.00,,,0.00,0.0,meteohub,2013-01-31 00:58:00,
2013-01-30 19:03:00,4.8,0.5,29.94,WSW,257,6.0,9.0,82,0.00,,,0.00,0.0,meteohub,2013-01-31 01:03:00,
2013-01-30 19:08:00,4.6,0.3,29.94,West,260,4.0,9.0,82,0.00,,,0.00,0.0,meteohub,2013-01-31 01:08:00,
2013-01-30 19:13:00,4.3,0.0,29.94,WNW,286,4.0,9.0,82,0.00,,,0.00,0.0,meteohub,2013-01-31 01:13:00,
2013-01-30 19:18:00,3.9,-0.6,29.94,West,277,8.0,11.0,81,0.00,,,0.00,0.0,meteohub,2013-01-31 01:18:00,
2013-01-30 19:23:00,3.7,-1.1,29.94,West,265,10.0,11.0,80,0.00,,,0.00,0.0,meteohub,2013-01-31 01:23:00,
2013-01-30 19:28:00,3.4,-1.5,29.94,West,269,6.0,12.0,80,0.00,,,0.00,0.0,meteohub,2013-01-31 01:28:00,
2013-01-30 19:33:00,3.2,-1.5,29.94,WSW,256,5.0,12.0,80,0.00,,,0.00,0.0,meteohub,2013-01-31 01:33:00,
2013-01-30 19:38:00,2.8,-1.8,29.94,WSW,248,8.0,12.0,80,0.00,,,0.00,0.0,meteohub,2013-01-31 01:38:00,
2013-01-30 19:43:00,2.7,-2.4,29.95,WNW,285,6.0,11.0,79,0.00,,,0.00,0.0,meteohub,2013-01-31 01:43:00,
2013-01-30 19:48:00,2.5,-2.6,29.95,WSW,256,12.0,12.0,79,0.00,,,0.00,0.0,meteohub,2013-01-31 01:48:00,
2013-01-30 19:53:00,2.1,-2.9,29.95,West,277,7.0,12.0,79,0.00,,,0.00,0.0,meteohub,2013-01-31 01:53:00,
2013-01-30 19:59:00,1.9,-3.1,29.96,WSW,252,10.0,13.0,79,0.00,,,0.00,0.0,meteohub,2013-01-31 01:59:00,
2013-01-30 20:04:00,1.8,-3.3,29.96,West,271,4.0,13.0,79,0.00,,,0.00,0.0,meteohub,2013-01-31 02:04:00,
2013-01-30 20:08:00,1.6,-3.5,29.95,West,272,13.0,13.0,79,0.00,,,0.00,0.0,meteohub,2013-01-31 02:08:00,
2013-01-30 20:13:00,1.4,-3.6,29.95,West,259,8.0,13.0,79,0.00,,,0.00,0.0,meteohub,2013-01-31 02:13:00,
2013-01-30 20:19:00,1.2,-3.8,29.96,WSW,240,8.0,13.0,79,0.00,,,0.00,0.0,meteohub,2013-01-31 02:19:00,
2013-01-30 20:24:00,1.0,-4.0,29.96,West,267,7.0,13.0,79,0.00,,,0.00,0.0,meteohub,2013-01-31 02:24:00,
2013-01-30 20:29:00,0.9,-4.2,29.96,West,275,8.0,14.0,79,0.00,,,0.00,0.0,meteohub,2013-01-31 02:29:00,
2013-01-30 20:34:00,0.7,-4.4,29.96,WNW,290,4.0,14.0,79,0.00,,,0.00,0.0,meteohub,2013-01-31 02:34:00,
2013-01-30 20:39:00,0.5,-4.5,29.96,West,267,7.0,14.0,79,0.00,,,0.00,0.0,meteohub,2013-01-31 02:39:00,
2013-01-30 20:44:00,0.3,-4.7,29.96,WSW,255,4.0,12.0,79,0.00,,,0.00,0.0,meteohub,2013-01-31 02:44:00,
2013-01-30 20:49:00,0.1,-4.9,29.96,WSW,257,6.0,12.0,79,0.00,,,0.00,0.0,meteohub,2013-01-31 02:49:00,
2013-01-30 20:54:00,0.1,-4.9,29.96,WSW,254,6.0,12.0,79,0.00,,,0.00,0.0,meteohub,2013-01-31 02:54:00,
2013-01-30 20:59:00,0.0,-5.1,29.96,West,274,6.0,11.0,79,0.00,,,0.00,0.0,meteohub,2013-01-31 02:59:00,
2013-01-30 21:04:00,0.0,-5.1,29.96,WSW,241,7.0,11.0,79,0.00,,,0.00,0.0,meteohub,2013-01-31 03:04:00,
2013-01-30 21:09:00,0.0,-4.7,29.96,West,266,5.0,11.0,80,0.00,,,0.00,0.0,meteohub,2013-01-31 03:09:00,
2013-01-30 21:14:00,0.0,-4.7,29.96,West,275,8.0,11.0,80,0.00,,,0.00,0.0,meteohub,2013-01-31 03:14:00,
2013-01-30 21:19:00,0.0,-4.7,29.96,West,281,8.0,11.0,80,0.00,,,0.00,0.0,meteohub,2013-01-31 03:19:00,
2013-01-30 21:24:00,0.0,-4.7,29.96,West,269,6.0,10.0,80,0.00,,,0.00,0.0,meteohub,2013-01-31 03:24:00,
2013-01-30 21:29:00,0.1,-4.5,29.96,West,259,8.0,10.0,80,0.00,,,0.00,0.0,meteohub,2013-01-31 03:29:00,
2013-01-30 21:34:00,0.1,-4.5,29.97,West,273,2.0,10.0,80,0.00,,,0.00,0.0,meteohub,2013-01-31 03:34:00,
2013-01-30 21:39:00,0.1,-4.5,29.97,WSW,249,7.0,10.0,80,0.00,,,0.00,0.0,meteohub,2013-01-31 03:39:00,
2013-01-30 21:44:00,0.1,-4.5,29.98,West,271,2.0,10.0,80,0.00,,,0.00,0.0,meteohub,2013-01-31 03:44:00,
2013-01-30 21:49:00,0.1,-4.5,29.97,WNW,282,2.0,10.0,80,0.00,,,0.00,0.0,meteohub,2013-01-31 03:49:00,
2013-01-30 21:54:00,0.3,-4.4,29.97,West,281,5.0,10.0,80,0.00,,,0.00,0.0,meteohub,2013-01-31 03:54:00,
2013-01-30 21:59:00,0.3,-4.4,29.98,WSW,249,7.0,10.0,80,0.00,,,0.00,0.0,meteohub,2013-01-31 03:59:00,
2013-01-30 22:04:00,0.1,-4.5,29.98,West,280,5.0,9.0,80,0.00,,,0.00,0.0,meteohub,2013-01-31 04:04:00,
2013-01-30 22:09:00,0.0,-5.1,29.98,West,264,6.0,11.0,79,0.00,,,0.00,0.0,meteohub,2013-01-31 04:09:00,
2013-01-30 22:14:00,0.0,-5.1,29.97,West,280,5.0,11.0,79,0.00,,,0.00,0.0,meteohub,2013-01-31 04:14:00,
2013-01-30 22:19:00,-0.2,-4.9,29.97,West,268,7.0,11.0,80,0.00,,,0.00,0.0,meteohub,2013-01-31 04:19:00,
2013-01-30 22:24:00,-0.2,-4.9,29.98,WSW,256,5.0,10.0,80,0.00,,,0.00,0.0,meteohub,2013-01-31 04:24:00,
2013-01-30 22:29:00,-0.6,-5.3,29.98,West,265,9.0,10.0,80,0.00,,,0.00,0.0,meteohub,2013-01-31 04:29:00,
2013-01-30 22:34:00,-0.6,-5.4,29.98,West,281,4.0,9.0,79,0.00,,,0.00,0.0,meteohub,2013-01-31 04:34:00,
2013-01-30 22:39:00,-0.8,-5.4,29.98,West,271,6.0,12.0,80,0.00,,,0.00,0.0,meteohub,2013-01-31 04:39:00,
2013-01-30 22:44:00,-0.8,-5.4,29.98,WSW,258,3.0,12.0,80,0.00,,,0.00,0.0,meteohub,2013-01-31 04:44:00,
2013-01-30 22:49:00,-0.9,-5.8,29.98,WNW,282,5.0,12.0,79,0.00,,,0.00,0.0,meteohub,2013-01-31 04:49:00,
2013-01-30 22:54:00,-1.1,-6.0,29.98,WSW,255,7.0,10.0,79,0.00,,,0.00,0.0,meteohub,2013-01-31 04:54:00,
2013-01-30 22:59:00,-1.3,-6.2,29.99,West,268,6.0,10.0,79,0.00,,,0.00,0.0,meteohub,2013-01-31 04:59:00,
2013-01-30 23:00:00,-1.3,-6.2,29.99,West,266,3.0,10.0,79,0.00,,,0.00,0.0,meteohub,2013-01-31 05:00:00,
2013-01-30 23:01:00,-1.5,-6.3,29.99,West,275,4.0,10.0,79,0.00,,,0.00,0.0,meteohub,2013-01-31 05:01:00,
2013-01-30 23:03:00,-1.5,-6.3,29.99,West,266,10.0,10.0,79,0.00,,,0.00,0.0,meteohub,2013-01-31 05:03:00,
2013-01-30 23:08:00,-1.7,-6.5,29.99,West,263,6.0,11.0,79,0.00,,,0.00,0.0,meteohub,2013-01-31 05:08:00,
2013-01-30 23:13:00,-1.7,-6.5,29.99,West,269,3.0,11.0,79,0.00,,,0.00,0.0,meteohub,2013-01-31 05:13:00,
2013-01-30 23:18:00,-1.7,-6.5,29.99,WSW,255,6.0,11.0,79,0.00,,,0.00,0.0,meteohub,2013-01-31 05:18:00,
2013-01-30 23:23:00,-1.8,-6.7,29.99,West,273,9.0,11.0,79,0.00,,,0.00,0.0,meteohub,2013-01-31 05:23:00,
2013-01-30 23:28:00,-1.8,-6.7,29.99,West,270,4.0,11.0,79,0.00,,,0.00,0.0,meteohub,2013-01-31 05:28:00,
2013-01-30 23:33:00,-2.0,-6.9,30.00,West,267,6.0,11.0,79,0.00,,,0.00,0.0,meteohub,2013-01-31 05:33:00,
2013-01-30 23:38:00,-2.2,-7.1,30.00,WSW,256,8.0,11.0,79,0.00,,,0.00,0.0,meteohub,2013-01-31 05:38:00,
2013-01-30 23:43:00,-2.4,-7.2,30.00,West,260,7.0,12.0,79,0.00,,,0.00,0.0,meteohub,2013-01-31 05:43:00,
2013-01-30 23:48:00,-2.6,-7.4,30.00,West,276,6.0,12.0,79,0.00,,,0.00,0.0,meteohub,2013-01-31 05:48:00,
2013-01-30 23:53:00,-2.7,-7.6,30.00,WSW,250,4.0,12.0,79,0.00,,,0.00,0.0,meteohub,2013-01-31 05:53:00,
2013-01-30 23:58:00,-2.7,-7.6,30.00,West,267,4.0,12.0,79,0.00,,,0.00,0.0,meteohub,2013-01-31 05:58:00,